Time,TemperatureF,DewpointF,PressureIn,WindDirection,WindDirectionDegrees,WindSpeedMPH,WindSpeedGustMPH,Humidity,HourlyPrecipIn,Conditions,Clouds,dailyrainin,SoftwareType,DateUTC
2013-01-30 00:21:00,47.0,38.0,30.17,North,0,0.0,-999.0,71,0.00,,,-99.99,,2013-01-30 08:21:00,
2013-01-30 00:32:00,47.0,38.0,30.17,North,0,0.0,-999.0,71,0.00,,,-99.99,,2013-01-30 08:32:00,
2013-01-30 00:42:00,47.0,38.0,30.17,North,0,0.0,-999.0,71,0.00,,,-99.99,,2013-01-30 08:42:00,
2013-01-30 00:52:00,47.0,38.0,30.17,North,0,0.0,-999.0,71,0.00,,,-99.99,,2013-01-30 08:52:00,
2013-01-30 01:21:00,46.0,38.0,30.19,North,0,0.0,-999.0,74,0.00,,,-99.99,,2013-01-30 09:21:00,
2013-01-30 01:32:00,46.0,38.0,30.19,North,0,0.0,-999.0,74,0.00,,,-99.99,,2013-01-30 09:32:00,
2013-01-30 01:41:00,46.0,38.0,30.19,North,0,0.0,-999.0,74,0.00,,,-99.99,,2013-01-30 09:41:00,
2013-01-30 01:51:00,46.0,38.0,30.19,North,0,0.0,-999.0,74,0.00,,,-99.99,,2013-01-30 09:51:00,
2013-01-30 02:21:00,45.0,39.0,30.20,North,0,0.0,-999.0,78,0.00,,,-99.99,,2013-01-30 10:21:00,
2013-01-30 02:31:00,45.0,39.0,30.20,North,0,0.0,-999.0,78,0.00,,,-99.99,,2013-01-30 10:31:00,
2013-01-30 02:41:00,45.0,39.0,30.20,North,0,0.0,-999.0,78,0.00,,,-99.99,,2013-01-30 10:41:00,
2013-01-30 02:52:00,45.0,39.0,30.20,North,0,0.0,-999.0,78,0.00,,,-99.99,,2013-01-30 10:52:00,
2013-01-30 03:22:00,44.0,38.0,30.22,North,0,0.0,-999.0,80,0.00,,,-99.99,,2013-01-30 11:22:00,
2013-01-30 03:32:00,44.0,38.0,30.22,North,0,0.0,-999.0,80,0.00,,,-99.99,,2013-01-30 11:32:00,
2013-01-30 03:42:00,44.0,38.0,30.22,North,0,0.0,-999.0,80,0.00,,,-99.99,,2013-01-30 11:42:00,
2013-01-30 03:52:00,44.0,38.0,30.22,North,0,0.0,-999.0,80,0.00,,,-99.99,,2013-01-30 11:52:00,
2013-01-30 04:22:00,43.0,38.0,30.23,North,0,0.0,-999.0,82,0.00,,,-99.99,,2013-01-30 12:22:00,
2013-01-30 04:32:00,43.0,38.0,30.23,North,0,0.0,-999.0,82,0.00,,,-99.99,,2013-01-30 12:32:00,
2013-01-30 04:42:00,43.0,38.0,30.23,North,0,0.0,-999.0,82,0.00,,,-99.99,,2013-01-30 12:42:00,
2013-01-30 05:22:00,42.0,37.0,30.23,North,0,0.0,-999.0,83,0.00,,,-99.99,,2013-01-30 13:22:00,
2013-01-30 05:32:00,42.0,37.0,30.23,North,0,0.0,-999.0,83,0.00,,,-99.99,,2013-01-30 13:32:00,
2013-01-30 05:42:00,42.0,37.0,30.23,North,0,0.0,-999.0,83,0.00,,,-99.99,,2013-01-30 13:42:00,
2013-01-30 05:52:00,42.0,37.0,30.23,North,0,0.0,-999.0,83,0.00,,,-99.99,,2013-01-30 13:52:00,
2013-01-30 06:22:00,41.0,37.0,30.24,North,0,0.0,-999.0,86,0.00,,,-99.99,,2013-01-30 14:22:00,
2013-01-30 06:32:00,41.0,37.0,30.24,North,0,0.0,-999.0,86,0.00,,,-99.99,,2013-01-30 14:32:00,
2013-01-30 06:42:00,41.0,37.0,30.24,North,0,0.0,-999.0,86,0.00,,,-99.99,,2013-01-30 14:42:00,
2013-01-30 06:52:00,41.0,37.0,30.24,North,0,0.0,-999.0,86,0.00,,,-99.99,,2013-01-30 14:52:00,
2013-01-30 07:23:00,41.0,37.0,30.27,North,0,0.0,-999.0,87,0.00,,,-99.99,,2013-01-30 15:23:00,
2013-01-30 07:33:00,41.0,37.0,30.27,North,0,0.0,-999.0,87,0.00,,,-99.99,,2013-01-30 15:33:00,
2013-01-30 07:43:00,41.0,37.0,30.27,North,0,0.0,-999.0,87,0.00,,,-99.99,,2013-01-30 15:43:00,
2013-01-30 07:52:00,41.0,37.0,30.27,North,0,0.0,-999.0,87,0.00,,,-99.99,,2013-01-30 15:52:00,
2013-01-30 08:23:00,44.0,40.0,30.28,North,0,0.0,-999.0,87,0.00,,,-99.99,,2013-01-30 16:23:00,
2013-01-30 08:32:00,44.0,40.0,30.28,North,0,0.0,-999.0,87,0.00,,,-99.99,,2013-01-30 16:32:00,
2013-01-30 08:42:00,44.0,40.0,30.28,North,0,0.0,-999.0,87,0.00,,,-99.99,,2013-01-30 16:42:00,
2013-01-30 08:52:00,44.0,40.0,30.28,North,0,0.0,-999.0,87,0.00,,,-99.99,,2013-01-30 16:52:00,
2013-01-30 09:22:00,53.0,43.0,30.28,North,0,0.0,-999.0,68,0.00,,,-99.99,,2013-01-30 17:22:00,
2013-01-30 09:32:00,53.0,43.0,30.28,North,0,0.0,-999.0,68,0.00,,,-99.99,,2013-01-30 17:32:00,
2013-01-30 09:42:00,53.0,43.0,30.28,North,0,0.0,-999.0,68,0.00,,,-99.99,,2013-01-30 17:42:00,
2013-01-30 09:52:00,53.0,43.0,30.28,North,0,0.0,-999.0,68,0.00,,,-99.99,,2013-01-30 17:52:00,
2013-01-30 10:22:00,61.0,39.0,30.29,North,0,0.0,-999.0,44,0.00,,,-99.99,,2013-01-30 18:22:00,
2013-01-30 10:33:00,61.0,39.0,30.29,North,0,0.0,-999.0,44,0.00,,,-99.99,,2013-01-30 18:33:00,
2013-01-30 10:42:00,61.0,39.0,30.29,North,0,0.0,-999.0,44,0.00,,,-99.99,,2013-01-30 18:42:00,
2013-01-30 10:52:00,61.0,39.0,30.29,North,0,0.0,-999.0,44,0.00,,,-99.99,,2013-01-30 18:52:00,
2013-01-30 11:22:00,64.0,39.0,30.28,ENE,70,3.0,-999.0,39,0.00,,,-99.99,,2013-01-30 19:22:00,
2013-01-30 11:32:00,64.0,39.0,30.28,ENE,70,3.0,-999.0,39,0.00,,,-99.99,,2013-01-30 19:32:00,
2013-01-30 11:42:00,64.0,39.0,30.28,ENE,70,3.0,-999.0,39,0.00,,,-99.99,,2013-01-30 19:42:00,
2013-01-30 11:52:00,64.0,39.0,30.28,ENE,70,3.0,-999.0,39,0.00,,,-99.99,,2013-01-30 19:52:00,
2013-01-30 12:22:00,67.0,38.0,30.25,ESE,110,5.0,-999.0,35,0.00,,,-99.99,,2013-01-30 20:22:00,
2013-01-30 12:33:00,67.0,38.0,30.25,ESE,110,5.0,-999.0,35,0.00,,,-99.99,,2013-01-30 20:33:00,
2013-01-30 12:42:00,67.0,38.0,30.25,ESE,110,5.0,-999.0,35,0.00,,,-99.99,,2013-01-30 20:42:00,
2013-01-30 12:52:00,67.0,38.0,30.25,ESE,110,5.0,-999.0,35,0.00,,,-99.99,,2013-01-30 20:52:00,
2013-01-30 13:22:00,69.0,38.0,30.21,SSE,150,3.0,-999.0,32,0.00,,,-99.99,,2013-01-30 21:22:00,
2013-01-30 13:32:00,69.0,38.0,30.21,SSE,150,3.0,-999.0,32,0.00,,,-99.99,,2013-01-30 21:32:00,
2013-01-30 13:42:00,69.0,38.0,30.21,SSE,150,3.0,-999.0,32,0.00,,,-99.99,,2013-01-30 21:42:00,
2013-01-30 13:52:00,69.0,38.0,30.21,SSE,150,3.0,-999.0,32,0.00,,,-99.99,,2013-01-30 21:52:00,
2013-01-30 14:22:00,70.0,36.0,30.18,North,0,0.0,-999.0,29,0.00,,,-99.99,,2013-01-30 22:22:00,
2013-01-30 14:32:00,70.0,36.0,30.18,North,0,0.0,-999.0,29,0.00,,,-99.99,,2013-01-30 22:32:00,
2013-01-30 14:42:00,70.0,36.0,30.18,North,0,0.0,-999.0,29,0.00,,,-99.99,,2013-01-30 22:42:00,
2013-01-30 14:52:00,70.0,36.0,30.18,North,0,0.0,-999.0,29,0.00,,,-99.99,,2013-01-30 22:52:00,
2013-01-30 15:22:00,70.0,36.0,30.17,North,0,0.0,-999.0,29,0.00,,,-99.99,,2013-01-30 23:22:00,
2013-01-30 15:32:00,70.0,36.0,30.17,North,0,0.0,-999.0,29,0.00,,,-99.99,,2013-01-30 23:32:00,
2013-01-30 15:42:00,70.0,36.0,30.17,North,0,0.0,-999.0,29,0.00,,,-99.99,,2013-01-30 23:42:00,
2013-01-30 15:52:00,70.0,36.0,30.17,North,0,0.0,-999.0,29,0.00,,,-99.99,,2013-01-30 23:52:00,
2013-01-30 16:32:00,69.0,36.0,30.16,SSE,160,2.0,-999.0,30,0.00,,,-99.99,,2013-01-31 00:32:00,
2013-01-30 16:42:00,69.0,36.0,30.16,SSE,160,2.0,-999.0,30,0.00,,,-99.99,,2013-01-31 00:42:00,
2013-01-30 16:52:00,69.0,36.0,30.16,SSE,160,2.0,-999.0,30,0.00,,,-99.99,,2013-01-31 00:52:00,
2013-01-30 17:21:00,66.0,35.0,30.15,North,0,0.0,-999.0,32,0.00,,,-99.99,,2013-01-31 01:21:00,
2013-01-30 17:31:00,66.0,35.0,30.15,North,0,0.0,-999.0,32,0.00,,,-99.99,,2013-01-31 01:31:00,
2013-01-30 17:41:00,66.0,35.0,30.15,North,0,0.0,-999.0,32,0.00,,,-99.99,,2013-01-31 01:41:00,
2013-01-30 17:52:00,66.0,35.0,30.15,North,0,0.0,-999.0,32,0.00,,,-99.99,,2013-01-31 01:52:00,
2013-01-30 18:21:00,62.0,35.0,30.16,North,0,0.0,-999.0,37,0.00,,,-99.99,,2013-01-31 02:21:00,
2013-01-30 18:32:00,62.0,35.0,30.16,North,0,0.0,-999.0,37,0.00,,,-99.99,,2013-01-31 02:32:00,
2013-01-30 18:41:00,62.0,35.0,30.16,North,0,0.0,-999.0,37,0.00,,,-99.99,,2013-01-31 02:41:00,
2013-01-30 18:52:00,62.0,35.0,30.16,North,0,0.0,-999.0,37,0.00,,,-99.99,,2013-01-31 02:52:00,
2013-01-30 19:21:00,59.0,38.0,30.16,North,0,0.0,-999.0,46,0.00,,,-99.99,,2013-01-31 03:21:00,
2013-01-30 19:32:00,59.0,38.0,30.16,North,0,0.0,-999.0,46,0.00,,,-99.99,,2013-01-31 03:32:00,
2013-01-30 19:41:00,59.0,38.0,30.16,North,0,0.0,-999.0,46,0.00,,,-99.99,,2013-01-31 03:41:00,
2013-01-30 19:51:00,59.0,38.0,30.16,North,0,0.0,-999.0,46,0.00,,,-99.99,,2013-01-31 03:51:00,
2013-01-30 20:22:00,56.0,40.0,30.17,North,0,0.0,-999.0,54,0.00,,,-99.99,,2013-01-31 04:22:00,
2013-01-30 20:31:00,56.0,40.0,30.17,North,0,0.0,-999.0,54,0.00,,,-99.99,,2013-01-31 04:31:00,
2013-01-30 20:41:00,56.0,40.0,30.17,North,0,0.0,-999.0,54,0.00,,,-99.99,,2013-01-31 04:41:00,
2013-01-30 20:51:00,56.0,40.0,30.17,North,0,0.0,-999.0,54,0.00,,,-99.99,,2013-01-31 04:51:00,
2013-01-30 21:22:00,53.0,40.0,30.18,North,0,0.0,-999.0,61,0.00,,,-99.99,,2013-01-31 05:22:00,
2013-01-30 21:31:00,53.0,40.0,30.18,North,0,0.0,-999.0,61,0.00,,,-99.99,,2013-01-31 05:31:00,
2013-01-30 21:41:00,53.0,40.0,30.18,North,0,0.0,-999.0,61,0.00,,,-99.99,,2013-01-31 05:41:00,
2013-01-30 21:51:00,53.0,40.0,30.18,North,0,0.0,-999.0,61,0.00,,,-99.99,,2013-01-31 05:51:00,